Tracking 32932 objects as of 14-Jan-2026
HD Live streaming from Space Station
objects crossing your sky now

COSMOS 970 DEB

Track COSMOS 970 DEB now!
10-day predictions


NORAD ID: 13504
Int'l Code: 1977-121BB
Perigee: 828.2 km
Apogee: 1,131.7 km
Inclination: 66.1 °
Period: 104.5 minutes
Semi major axis: 7350 km
RCS: 0.036 m2 (small)
Launch date: December 21, 1977
Source: Commonwealth of Independent States (former USSR) (CIS)
Launch site: TYURATAM MISSILE AND SPACE COMPLEX (TTMTR)

Note: This is SATELLITE DEBRIS
Your satellite tracking list
Your tracking list is empty




NASA's NSSDC Master Catalog

Two Line Element Set (TLE):
1 13504U 77121BB  26013.67017089 -.00000007  00000-0  62225-4 0  9990
2 13504  66.1169 122.1994 0206498 217.9835 259.5431 13.77486771404789
Source of the keplerian elements: AFSPC